Tracking 19176 objects as of 27-May-2018
HD Live streaming from Space Station
objects crossing your sky now

ANIK A3 (TELESAT-3)

Track ANIK A3 (TELESAT-3) now!
ANIK A3 (TELESAT-3) is classified as:


NORAD ID: 7790
Int'l Code: 1975-038A
Perigee: 35,838.8 km
Apogee: 35,865.4 km
Inclination: 13.4 °
Period: 1,439.1 minutes
Semi major axis: 42223 km
RCS: 3.6797 m2 (large)
Launch date: May 7, 1975
Source: Canada (CA)
Launch site: AIR FORCE EASTERN TEST RANGE (AFETR)
aabbcc
Your satellite tracking list
Your tracking list is empty




NASA's NSSDC Master Catalog

Two Line Element Set (TLE):
1  7790U 75038A   18146.75814230 -.00000009 +00000-0 +00000-0 0  9996
2  7790 013.4361 331.0502 0003144 344.9781 022.9716 01.00064027100519
Source of the keplerian elements: AFSPC